When you browse on this site, cookies collect data to enhance your experience and personalize the content and advertising you see.
Visit our Privacy Policy to learn more. By continuing to use the site, you agree to this use of cookies and data.
  • In Austria
  • List of Countries
  • For 7 days
  • Water Temperature
  • Weather Map
  • News
  • Weather Widgets
  • user-avatar
    Login

    Hourly Weather Pamporovo

    Today, 12 December, Thursday

    Time Temperature Precipitation Wind Pressure Humidity
    00:00 0°C° 0.2 mm 1 mps 618 mmHg 97%
    01:00 0°C° 0.2 mm 1 mps 618 mmHg 97%
    02:00 0°C° 0 mm 1 mps 618 mmHg 97%
    03:00 0°C° 0.5 mm 1 mps 618 mmHg 97%
    04:00 0°C° 0.5 mm 1 mps 617 mmHg 97%
    05:00 0°C° 0.5 mm 1 mps 617 mmHg 97%
    06:00 0°C° 0.2 mm 1 mps 617 mmHg 97%
    07:00 0°C° 0.2 mm 1 mps 617 mmHg 97%
    08:00 0°C° 0 mm 1 mps 617 mmHg 96%
    09:00 0°C° 0.4 mm 1 mps 617 mmHg 95%
    10:00 +1°C° 0.4 mm 1 mps 617 mmHg 95%
    11:00 +1°C° 0.4 mm 1 mps 617 mmHg 94%
    12:00 +1°C° 0.4 mm 1 mps 617 mmHg 94%
    13:00 +1°C° 0.4 mm 1 mps 616 mmHg 95%
    14:00 0°C° 0 mm 0 mps 617 mmHg 95%
    15:00 +1°C° 0.3 mm 1 mps 616 mmHg 96%
    16:00 +1°C° 0.3 mm 1 mps 616 mmHg 97%
    17:00 +1°C° 0.3 mm 1 mps 616 mmHg 97%
    18:00 +1°C° 0.3 mm 1 mps 616 mmHg 97%
    19:00 +1°C° 0.3 mm 1 mps 616 mmHg 97%
    20:00 +1°C° 0.3 mm 1 mps 616 mmHg 97%
    21:00 +1°C° 0 mm 1 mps 616 mmHg 97%
    22:00 +1°C° 0 mm 1 mps 616 mmHg 96%
    23:00 +1°C° 0 mm 1 mps 616 mmHg 96%

    Tomorrow, 13 December, Friday

    Time Temperature Precipitation Wind Pressure Humidity
    00:00 +1°C° 0.2 mm 1 mps 615 mmHg 96%
    01:00 +1°C° 0.2 mm 1 mps 615 mmHg 97%
    02:00 +1°C° 0.2 mm 1 mps 615 mmHg 97%
    03:00 +1°C° 0.2 mm 1 mps 615 mmHg 97%
    04:00 0°C° 0.2 mm 0 mps 614 mmHg 97%
    05:00 0°C° 0.2 mm 0 mps 614 mmHg 97%
    06:00 0°C° 0.1 mm 0 mps 614 mmHg 97%
    07:00 0°C° 0.1 mm 0 mps 614 mmHg 97%
    08:00 +1°C° 0.1 mm 1 mps 614 mmHg 97%
    09:00 +1°C° 0.3 mm 1 mps 614 mmHg 94%
    10:00 +2°C° 0.3 mm 1 mps 614 mmHg 92%
    11:00 +2°C° 0.3 mm 1 mps 614 mmHg 89%
    12:00 +3°C° 0.1 mm 1 mps 614 mmHg 86%
    13:00 +2°C° 0.1 mm 2 mps 614 mmHg 83%
    14:00 +3°C° 0.1 mm 2 mps 613 mmHg 80%
    15:00 +2°C° 0 mm 2 mps 613 mmHg 85%
    16:00 +2°C° 0 mm 1 mps 612 mmHg 89%
    17:00 +1°C° 0 mm 1 mps 611 mmHg 94%
    18:00 +1°C° 0 mm 1 mps 611 mmHg 94%
    19:00 0°C° 0 mm 1 mps 611 mmHg 94%
    20:00 0°C° 0 mm 1 mps 611 mmHg 95%
    21:00 0°C° 0 mm 1 mps 611 mmHg 95%
    22:00 -2°C° 0 mm 2 mps 611 mmHg 94%
    23:00 -2°C° 0 mm 2 mps 610 mmHg 94%

    Day after tomorrow, 14 December, Saturday

    Time Temperature Precipitation Wind Pressure Humidity
    00:00 -2°C° 0 mm 2 mps 610 mmHg 93%
    01:00 -2°C° 0 mm 2 mps 610 mmHg 93%
    02:00 -2°C° 0 mm 2 mps 610 mmHg 92%
    03:00 -2°C° 0 mm 2 mps 609 mmHg 92%
    04:00 -2°C° 0 mm 2 mps 609 mmHg 93%
    05:00 -2°C° 0 mm 2 mps 608 mmHg 93%
    06:00 -2°C° 0 mm 2 mps 609 mmHg 94%
    07:00 -1°C° 0 mm 2 mps 609 mmHg 94%
    08:00 -1°C° 0 mm 2 mps 609 mmHg 95%
    09:00 -1°C° 0.6 mm 2 mps 609 mmHg 96%
    10:00 +1°C° 0.6 mm 2 mps 610 mmHg 96%
    11:00 +1°C° 0.6 mm 2 mps 610 mmHg 97%
    12:00 +2°C° 3 mm 2 mps 610 mmHg 97%
    13:00 +2°C° 3 mm 2 mps 610 mmHg 98%
    14:00 +2°C° 3 mm 2 mps 611 mmHg 98%
    15:00 +2°C° 2.7 mm 2 mps 611 mmHg 98%
    16:00 +2°C° 2.7 mm 2 mps 612 mmHg 98%
    17:00 +2°C° 2.7 mm 2 mps 612 mmHg 98%
    18:00 +3°C° 1.8 mm 1 mps 613 mmHg 98%
    19:00 +3°C° 1.8 mm 1 mps 614 mmHg 98%
    20:00 +3°C° 1.8 mm 1 mps 615 mmHg 98%
    21:00 +3°C° 1.4 mm 1 mps 616 mmHg 98%
    22:00 +3°C° 1.4 mm 1 mps 617 mmHg 97%
    23:00 +3°C° 1.4 mm 1 mps 618 mmHg 97%

    15 December, Sunday

    Time Temperature Precipitation Wind Pressure Humidity
    00:00 +3°C° 0.1 mm 1 mps 618 mmHg 96%
    01:00 +3°C° 0.1 mm 1 mps 619 mmHg 96%
    02:00 +3°C° 0.1 mm 1 mps 620 mmHg 95%
    03:00 +3°C° 0 mm 1 mps 620 mmHg 94%
    04:00 +2°C° 0 mm 1 mps 621 mmHg 94%
    05:00 +2°C° 0 mm 1 mps 621 mmHg 93%
    06:00 +2°C° 0 mm 1 mps 622 mmHg 93%
    07:00 +2°C° 0 mm 1 mps 622 mmHg 93%
    08:00 +2°C° 0 mm 1 mps 623 mmHg 93%
    09:00 +3°C° 0 mm 1 mps 624 mmHg 88%
    10:00 +4°C° 0 mm 0 mps 625 mmHg 83%
    11:00 +5°C° 0 mm 0 mps 626 mmHg 78%
    12:00 +6°C° 0 mm 0 mps 626 mmHg 77%
    13:00 +7°C° 0 mm 1 mps 626 mmHg 76%
    14:00 +7°C° 0 mm 1 mps 626 mmHg 75%
    15:00 +6°C° 0 mm 1 mps 626 mmHg 81%
    16:00 +5°C° 0 mm 1 mps 626 mmHg 87%
    17:00 +4°C° 0 mm 1 mps 626 mmHg 92%
    18:00 +3°C° 0 mm 1 mps 626 mmHg 93%
    19:00 +3°C° 0 mm 1 mps 626 mmHg 93%
    20:00 +2°C° 0 mm 1 mps 626 mmHg 93%
    21:00 +2°C° 0 mm 1 mps 627 mmHg 92%
    22:00 +2°C° 0 mm 1 mps 627 mmHg 92%
    23:00 +2°C° 0 mm 1 mps 627 mmHg 91%

    16 December, Monday

    Time Temperature Precipitation Wind Pressure Humidity
    00:00 +2°C° 0 mm 1 mps 627 mmHg 91%
    01:00 +1°C° 0 mm 1 mps 627 mmHg 90%
    02:00 +1°C° 0 mm 1 mps 627 mmHg 90%
    03:00 +1°C° 0 mm 1 mps 627 mmHg 90%
    04:00 +1°C° 0 mm 1 mps 627 mmHg 89%
    05:00 +1°C° 0 mm 1 mps 627 mmHg 88%
    06:00 +1°C° 0 mm 1 mps 627 mmHg 87%
    07:00 +1°C° 0 mm 1 mps 627 mmHg 86%
    08:00 +1°C° 0 mm 1 mps 627 mmHg 85%
    09:00 +3°C° 0 mm 1 mps 629 mmHg 80%
    10:00 +5°C° 0 mm 1 mps 630 mmHg 76%
    11:00 +7°C° 0 mm 1 mps 631 mmHg 71%
    12:00 +7°C° 0 mm 1 mps 630 mmHg 71%
    13:00 +8°C° 0 mm 1 mps 630 mmHg 70%
    14:00 +8°C° 0 mm 1 mps 630 mmHg 69%
    15:00 +6°C° 0 mm 1 mps 629 mmHg 76%
    16:00 +5°C° 0 mm 1 mps 629 mmHg 83%
    17:00 +3°C° 0 mm 1 mps 628 mmHg 90%
    18:00 +3°C° 0 mm 1 mps 628 mmHg 88%
    19:00 +3°C° 0 mm 1 mps 628 mmHg 86%
    20:00 +2°C° 0 mm 1 mps 628 mmHg 83%
    21:00 +2°C° 0 mm 1 mps 628 mmHg 79%
    22:00 +2°C° 0 mm 1 mps 628 mmHg 75%
    23:00 +2°C° 0 mm 1 mps 628 mmHg 71%

    17 December, Tuesday

    Time Temperature Precipitation Wind Pressure Humidity
    00:00 +2°C° 0 mm 1 mps 628 mmHg 68%
    01:00 +2°C° 0 mm 1 mps 628 mmHg 65%
    02:00 +2°C° 0 mm 1 mps 628 mmHg 62%
    03:00 +2°C° 0 mm 1 mps 628 mmHg 60%
    04:00 +2°C° 0 mm 1 mps 628 mmHg 58%
    05:00 +2°C° 0 mm 1 mps 628 mmHg 55%
    06:00 +2°C° 0 mm 1 mps 628 mmHg 53%
    07:00 +2°C° 0 mm 1 mps 628 mmHg 52%
    08:00 +2°C° 0 mm 1 mps 628 mmHg 50%
    09:00 +5°C° 0 mm 1 mps 629 mmHg 49%
    10:00 +6°C° 0 mm 0 mps 630 mmHg 49%
    11:00 +8°C° 0 mm 0 mps 631 mmHg 48%
    12:00 +9°C° 0 mm 0 mps 631 mmHg 50%
    13:00 +9°C° 0 mm 0 mps 631 mmHg 51%
    14:00 +11°C° 0 mm 1 mps 631 mmHg 53%
    15:00 +8°C° 0 mm 0 mps 630 mmHg 58%
    16:00 +6°C° 0 mm 0 mps 629 mmHg 62%
    17:00 +5°C° 0 mm 0 mps 629 mmHg 67%
    18:00 +6°C° 0 mm 1 mps 629 mmHg 62%
    19:00 +5°C° 0 mm 1 mps 629 mmHg 57%
    20:00 +5°C° 0 mm 1 mps 629 mmHg 51%
    21:00 +5°C° 0 mm 1 mps 629 mmHg 49%
    22:00 +5°C° 0 mm 1 mps 629 mmHg 46%
    23:00 +5°C° 0 mm 1 mps 629 mmHg 44%
    Show more